Temp
13 14 13 16 16 17 18 18 18 17 15 19 18 19 20 22 22 22 17 19 19 18 19 20 21 21 20 20 19 19 19 18 18 18 18 16 15 13 13 12 12 12 12 12
13 12 12 13 15 15 16 17 17 15 14 17 17 18 19 20 21 21 20 17 19 17 15 14 14 15 16 16 16 17 17 17 18 18 17 15 12 10 10 10 10 11 11 11
13 12 12 12 14 15 16 16 17 17 14 14 16 17 18 19 21 19 18 17 18 16 14 12 10 10 11 12 13 14 14 15 15 16 15 12 10 9 9 9 9 9 10 10
13 13 12 12 12 14 16 16 16 16 16 16 17 17 17 19 19 19 17 15 14 12 11 10 9 7 8 8 10 11 12 12 12 11 10 9 8 6 7 7 7 7 9 9
14 12 12 12 11 14 15 16 16 16 15 15 15 15 18 19 18 17 14 12 11 11 10 9 7 6 6 7 8 8 10 9 9 9 8 7 6 6 6 7 8 7 7 8
14 14 13 13 12 13 13 14 13 13 14 14 15 16 16 17 18 16 13 11 10 9 9 7 7 6 5 6 6 7 8 7 7 8 8 8 7 7 7 6 6 6 6 5
13 13 14 14 13 12 13 13 13 14 14 15 15 15 17 16 18 15 12 10 9 8 8 7 6 6 5 5 5 6 7 7 8 7 7 7 7 7 7 6 5 4 3 2
10 11 14 14 14 14 13 12 13 15 15 14 13 15 16 15 14 13 12 9 8 7 7 6 5 5 4 5 5 6 6 6 7 7 7 6 7 6 5 5 4 3 2 3
9 12 13 12 12 15 13 13 14 13 10 12 13 15 14 13 12 11 10 8 7 7 6 6 5 4 4 4 5 7 7 6 6 5 5 4 4 4 4 3 3 3 3 2
10 10 10 12 13 13 14 13 13 12 11 13 14 15 16 12 11 10 9 8 7 6 6 6 4 3 4 4 5 5 5 4 4 3 3 4 3 3 3 3 3 3 2 2
9 10 10 12 11 12 13 13 12 13 11 12 14 14 14 13 12 11 10 8 7 6 6 5 4 3 3 3 3 2 2 2 2 2 3 3 3 3 3 3 2 2 2 1
10 9 11 10 9 9 10 13 13 14 13 12 13 14 12 12 12 11 10 8 7 7 6 4 3 2 2 2 2 2 2 2 3 2 2 2 2 2 2 2 2 1 1 -0
9 9 10 9 9 9 10 11 12 13 12 12 13 14 12 11 11 11 9 8 7 6 5 4 3 2 2 2 2 2 2 2 2 2 3 2 2 2 2 1 0 -0 -1 -1
10 9 9 9 11 10 9 10 11 12 11 11 12 14 12 11 10 10 8 7 7 6 5 4 4 3 3 2 2 2 1 2 2 2 2 1 1 1 -0 -1 -1 -1 -1 -1
9 9 9 10 11 12 11 11 10 11 13 13 14 14 14 12 11 10 8 7 6 6 5 5 4 4 2 2 2 1 1 1 2 1 1 1 -0 -1 -1 -1 -1 -1 -1 -2
8 8 8 8 10 11 11 12 11 12 12 12 12 12 13 12 10 8 8 8 7 6 6 5 5 3 2 2 1 1 1 1 1 1 1 -0 -1 -1 -1 -1 -1 -2 -3 -3
7 6 8 10 7 8 7 9 12 12 12 12 11 13 14 12 11 8 8 8 7 7 6 5 4 3 2 1 1 1 1 0 0 0 -0 -1 -1 -1 -2 -2 -3 -3 -3 -3
7 7 8 8 2 8 10 12 11 11 11 11 12 13 13 12 11 9 8 8 7 7 6 5 4 3 2 2 2 1 0 -0 -0 -0 -1 -1 -2 -2 -2 -3 -3 -3 -4 -4
6 7 7 5 7 8 11 10 10 10 10 10 11 11 11 10 9 10 8 8 8 7 6 5 4 2 3 2 1 1 -1 -1 -1 -1 -2 -2 -2 -2 -3 -3 -4 -4 -4 -5
6 7 8 4 6 4 10 11 11 11 9 10 10 10 9 9 9 8 7 7 7 7 6 3 3 3 2 1 0 -0 -1 -1 -2 -2 -2 -2 -2 -3 -4 -4 -4 -5 -5 -6
7 7 7 6 3 4 7 10 10 8 11 10 9 9 8 9 10 9 6 5 6 5 3 3 3 2 0 0 -0 -1 -1 -2 -1 -2 -2 -2 -3 -4 -4 -5 -5 -6 -6 -6
7 5 3 1 6 6 7 9 10 9 8 8 8 8 9 8 8 5 4 2 2 1 1 1 1 -0 -0 0 -0 -1 -1 -1 -2 -2 -2 -3 -4 -5 -5 -6 -6 -6 -6 -7
6 5 5 6 7 8 6 9 8 7 7 7 7 7 7 5 5 3 1 -0 -0 -0 -0 0 -1 -1 -1 -0 0 -1 -1 -2 -2 -2 -3 -4 -5 -5 -5 -6 -6 -6 -7 -8
4 4 4 7 8 6 7 7 7 6 7 6 6 6 5 6 3 1 -1 -1 -1 -2 -2 -1 -1 -2 -1 -1 -1 -0 -1 -2 -2 -3 -4 -4 -5 -6 -6 -6 -7 -7 -8 -9
2 3 1 2 5 5 5 5 6 5 5 5 5 5 4 3 2 0 -1 -2 -2 -2 -2 -0 -0 -1 -2 -3 -2 -2 -2 -2 -3 -4 -4 -5 -5 -6 -7 -7 -8 -9 -9 -10
-0 3 4 5 5 6 7 6 4 4 3 3 3 4 4 3 0 -0 -3 -2 -2 -2 -1 -1 -2 -1 -2 -3 -3 -2 -3 -3 -3 -4 -4 -5 -6 -7 -7 -8 -9 -10 -11 -11
Height
795 796 799 783 782 785 784 793 798 801 806 802 808 805 803 796 798 798 811 808 810 814 817 823 826 829 833 836 839 842 844 847 852 854 856 858 860 863 864 866 867 867 868 869
793 800 802 791 783 785 787 789 797 806 806 804 810 809 805 801 800 800 802 809 808 812 820 825 826 829 831 834 837 840 842 845 849 851 853 856 859 864 865 867 868 868 869 870
789 795 797 794 786 783 783 785 788 796 809 814 812 815 809 803 798 800 803 803 807 812 820 828 830 834 836 836 838 840 843 844 847 849 852 855 859 863 867 869 872 871 871 872
788 791 797 797 797 783 777 778 785 795 802 811 808 815 806 802 805 802 805 808 815 821 825 829 834 838 839 841 842 843 844 845 847 848 852 855 858 864 870 873 874 876 871 874
783 789 789 798 800 783 780 777 785 792 804 809 814 822 804 793 805 811 812 815 821 826 831 834 837 842 844 845 845 846 845 849 849 851 854 856 861 868 874 870 871 877 873 873
781 781 786 792 800 792 787 782 795 801 806 814 808 813 809 799 789 807 813 818 823 830 835 839 841 844 847 848 850 848 850 852 856 857 859 861 866 870 872 879 873 876 875 877
786 784 782 781 794 796 795 787 802 805 809 808 803 811 801 795 786 798 810 821 827 831 834 839 843 847 852 852 851 854 858 856 859 866 866 866 870 867 870 874 872 873 872 876
799 802 787 783 784 794 794 796 795 796 801 807 811 810 799 801 797 804 813 822 829 835 839 842 846 849 854 858 856 853 860 863 865 864 866 868 867 871 870 871 875 874 876 877
809 795 787 791 787 785 792 796 794 807 828 817 811 805 808 808 810 813 819 829 836 838 841 845 849 853 856 860 858 857 861 865 864 864 866 867 871 871 871 874 877 878 878 877
799 805 800 791 787 786 779 785 804 811 829 815 810 806 797 811 815 818 823 829 837 840 843 847 853 856 859 860 860 862 864 865 864 864 868 869 872 873 874 875 877 878 878 878
806 801 802 794 799 795 787 791 797 801 815 812 809 805 799 799 806 810 819 828 834 838 844 848 851 856 858 861 863 865 868 869 868 870 871 874 875 876 876 877 877 878 879 879
800 804 793 796 803 803 798 789 791 793 806 808 801 802 798 799 801 810 819 829 836 839 844 849 854 857 860 862 863 866 867 869 870 873 875 876 877 877 878 879 879 880 879 880
801 801 802 807 810 807 803 798 797 793 797 803 801 801 800 800 805 811 820 829 835 839 845 848 853 859 861 863 865 867 868 870 873 875 876 877 878 879 879 880 880 881 882 882
802 804 802 812 799 802 811 810 802 793 805 808 802 798 802 806 809 814 822 829 834 838 843 847 851 857 859 863 865 866 869 871 873 875 877 877 878 879 880 880 880 882 882 881
805 804 807 800 794 791 797 797 798 795 794 797 795 793 794 798 801 807 819 827 832 836 840 843 850 854 856 861 864 867 869 870 872 875 878 877 879 880 882 881 881 880 881 882
809 809 810 810 799 792 791 789 793 795 798 798 799 800 789 790 802 812 817 822 826 831 836 841 849 851 852 857 861 866 866 869 872 876 875 876 879 881 880 880 882 881 882 884
814 821 813 804 818 810 826 801 791 791 792 793 803 789 787 794 797 804 811 815 819 824 832 837 842 847 851 855 859 862 864 868 871 873 874 876 877 880 879 880 881 882 883 883
816 817 813 818 847 821 797 787 788 793 793 794 791 787 786 788 791 798 803 806 814 821 828 835 837 843 850 854 857 859 864 867 869 870 873 873 877 879 878 880 881 880 882 883
819 816 818 833 826 816 790 791 792 795 794 790 790 790 791 794 797 798 799 802 806 812 819 824 832 840 845 850 854 859 862 864 866 870 872 874 876 876 877 878 878 880 880 880
820 818 815 838 832 850 796 789 788 787 805 787 786 787 795 795 803 798 796 799 804 809 813 820 828 836 842 850 853 854 857 862 865 868 869 872 873 875 876 877 878 877 879 879
816 815 821 828 850 829 798 791 790 815 796 788 789 789 793 792 787 789 791 799 802 807 813 820 827 832 838 845 850 852 855 859 863 866 868 869 872 873 875 873 875 873 874 876
809 823 838 851 824 825 793 794 793 789 791 790 791 792 791 792 791 793 794 799 803 807 814 819 825 831 837 842 848 850 853 858 862 863 865 868 869 870 871 871 871 871 873 874
818 813 815 813 806 789 791 786 787 789 790 791 792 792 791 792 793 796 799 802 805 808 814 819 823 830 837 843 847 848 852 856 858 861 864 867 866 867 867 867 868 870 871 870
812 808 812 801 786 790 787 788 788 788 788 789 790 790 791 791 794 798 801 805 809 813 817 821 826 832 838 841 845 848 851 854 858 860 862 862 863 864 865 867 868 868 868 868
811 810 815 811 794 792 786 785 782 785 786 787 788 789 790 792 797 799 804 808 811 815 820 823 826 830 835 840 844 848 851 853 855 857 859 860 861 863 863 864 864 865 866 866
804 797 798 796 782 781 780 781 781 782 783 785 787 789 789 791 795 799 804 808 812 815 819 824 828 832 836 839 843 846 848 851 853 854 855 857 858 860 860 861 862 863 863 864
Wind_Speed
4 5 11 11 21 7 19 17 13 4 0 5 4 6 6 5 1 5 8 11 12 12 15 17 17 19 19 20 21 23 20 18 17 16 16 16 15 14 13 12 11 10 10 11
3 8 12 11 9 14 7 22 17 2 3 3 3 3 2 8 6 6 8 8 11 9 13 17 22 23 23 22 21 18 15 15 17 16 14 16 19 16 16 15 16 15 15 15
9 4 6 13 11 18 15 14 22 7 5 3 4 3 6 5 5 6 5 6 10 13 15 12 18 20 21 22 20 20 17 16 14 15 16 23 23 21 19 19 20 20 21 20
6 9 8 8 18 8 10 11 14 12 11 9 4 6 7 12 9 6 7 10 12 11 11 14 16 18 19 18 16 16 16 16 16 18 23 23 24 24 23 24 23 22 22 20
2 10 6 3 9 6 3 14 15 10 6 6 9 3 4 12 18 7 9 12 11 10 9 10 17 16 16 14 16 17 19 18 19 21 23 28 30 26 22 23 22 17 19 17
1 3 8 10 7 6 6 15 10 5 4 4 7 7 3 6 23 8 11 12 14 13 12 16 18 17 18 18 19 22 25 28 26 28 29 30 29 24 21 14 17 15 16 14
2 3 2 10 8 4 4 5 3 3 2 3 8 6 3 4 2 14 16 12 12 11 13 11 15 17 17 22 27 30 33 36 33 29 28 25 20 18 16 12 12 12 16 17
2 0 4 3 5 6 7 2 2 4 3 4 1 4 2 1 10 13 13 14 12 12 10 11 16 17 19 22 29 32 29 26 24 22 18 15 13 11 12 13 12 14 12 11
4 3 1 4 3 2 7 2 2 4 3 4 4 1 3 7 9 12 14 12 10 11 11 12 18 17 19 22 25 26 22 18 16 15 13 14 15 15 15 13 12 11 10 11
3 2 1 2 2 3 2 10 2 1 2 2 3 3 3 7 10 9 10 12 11 11 12 12 12 12 16 18 17 15 14 14 15 16 16 16 15 14 13 12 11 11 11 10
2 3 1 2 3 1 2 2 3 4 1 4 4 4 1 5 13 15 13 12 13 13 12 11 15 16 16 13 12 12 12 14 16 15 16 15 15 14 12 12 11 10 9 9
4 2 2 2 2 3 1 1 3 4 3 1 1 2 2 4 12 13 13 13 13 13 12 12 12 14 14 15 14 14 14 16 16 15 15 15 13 12 11 10 10 9 10 10
3 1 3 3 3 2 2 3 2 3 3 3 4 2 2 7 9 11 15 15 13 12 11 11 13 11 10 11 13 15 15 15 15 15 14 13 12 10 10 9 9 9 9 10
2 1 2 3 2 3 4 5 5 3 3 3 3 3 2 6 10 11 13 14 14 13 11 9 10 12 13 15 17 16 15 15 15 13 12 12 10 9 8 8 9 8 8 8
1 2 1 2 2 4 5 5 5 3 4 5 4 4 5 12 13 17 15 15 14 14 13 12 10 14 18 20 18 17 16 15 14 13 12 11 9 8 7 7 7 6 6 6
2 2 1 4 5 5 4 7 6 8 5 5 8 5 5 4 8 11 16 16 16 16 15 12 13 17 20 23 22 21 18 16 14 13 11 9 8 7 6 5 5 5 5 5
1 2 2 3 4 4 5 7 10 8 5 10 8 9 3 4 8 16 17 18 17 18 14 13 16 20 20 25 26 24 20 17 15 13 11 9 7 5 5 4 3 3 3 3
1 3 1 2 3 0 6 1 5 11 3 8 5 3 3 5 2 8 13 17 16 16 14 14 20 21 26 27 24 22 20 18 15 13 10 8 7 5 4 3 2 2 2 2
3 1 1 3 2 4 3 3 5 7 6 10 11 8 5 5 4 1 13 15 17 17 23 25 25 26 27 27 27 26 22 18 15 14 11 9 7 6 4 3 2 2 2 2
1 2 0 2 3 5 5 2 1 3 4 1 2 7 7 5 3 5 9 12 12 21 25 26 30 30 30 27 27 25 21 19 17 14 11 8 7 6 5 4 3 3 3 3
2 2 3 2 2 7 6 3 0 5 4 1 2 2 7 6 5 2 9 8 17 23 26 31 33 33 31 28 26 23 21 19 15 13 10 8 7 6 5 5 5 4 4 5
3 4 3 2 3 7 5 3 6 3 1 2 1 1 4 3 1 5 8 10 18 22 26 29 28 27 30 29 26 23 21 18 15 12 10 10 9 7 7 6 5 5 6 7
3 6 3 7 6 3 5 0 2 3 4 3 1 1 3 6 6 6 6 8 14 20 22 25 26 27 26 25 25 24 21 18 15 13 13 11 9 8 7 6 7 8 8 8
4 4 3 2 5 6 5 4 4 5 5 4 3 2 3 4 7 6 7 7 13 17 21 25 26 27 26 25 23 19 18 17 15 14 12 10 9 8 8 8 8 8 8 9
4 5 5 5 7 6 8 8 6 6 4 4 2 1 5 7 5 6 6 8 15 20 23 27 28 29 27 24 22 20 19 17 15 13 11 11 10 9 9 9 8 9 9 11
5 7 5 5 6 3 2 2 2 7 6 7 5 2 2 7 8 8 8 17 21 23 26 26 25 25 25 24 22 21 18 16 14 14 13 12 11 10 10 10 10 9 8 7
Wind_Direction
172 211 241 250 198 199 209 199 180 155 264 124 164 204 179 227 227 172 157 169 162 169 185 178 166 174 180 175 171 179 176 182 186 183 178 155 129 120 109 98 92 84 79 79
155 244 298 300 255 216 216 199 201 72 61 96 123 251 291 240 233 220 155 181 167 113 93 76 82 101 114 118 120 133 133 155 177 186 176 158 134 114 106 97 91 88 85 82
197 209 329 354 296 196 203 200 191 161 125 101 125 268 252 282 214 127 98 119 119 129 118 96 79 76 98 101 104 112 112 124 131 157 154 139 125 111 104 92 86 86 86 80
218 197 231 330 301 235 171 177 170 155 167 212 156 258 251 230 257 182 115 127 113 104 94 93 83 70 84 92 103 106 111 111 123 135 138 132 115 98 99 95 90 77 80 71
210 165 183 298 284 342 335 142 147 146 120 135 174 163 260 207 221 215 121 109 101 99 96 91 86 85 84 93 98 103 105 103 111 123 122 116 100 102 102 100 91 79 66 63
95 140 162 177 249 320 325 109 68 77 99 162 182 178 254 192 207 161 123 113 112 106 101 92 90 90 87 100 100 103 106 101 100 104 105 106 110 111 107 79 79 71 64 55
107 12 124 145 158 191 312 55 125 116 160 148 173 176 211 328 146 152 139 124 114 116 109 104 97 95 96 100 105 107 107 107 108 104 108 110 109 101 96 93 73 63 55 44
121 353 201 175 193 160 161 116 86 109 143 128 28 199 210 15 88 108 114 116 114 109 111 110 113 111 113 115 117 115 112 111 112 111 110 110 107 113 104 89 82 72 75 61
135 212 334 57 327 170 156 174 70 72 16 94 163 236 85 95 91 111 115 107 110 121 123 122 123 125 130 135 124 120 121 121 119 118 113 106 105 102 97 96 91 84 78 66
339 165 33 291 288 8 187 139 99 354 137 171 151 194 200 164 147 142 136 133 137 132 131 128 123 127 141 136 131 132 134 134 124 116 116 112 112 108 107 107 95 83 77 73
136 263 199 189 37 173 91 131 103 133 112 154 136 240 126 181 174 168 156 151 148 145 146 144 142 149 150 146 139 129 118 116 117 118 116 120 117 113 107 100 93 87 83 79
155 308 137 63 65 357 309 111 195 146 200 318 108 259 346 291 167 157 153 150 149 150 146 141 144 154 155 149 141 133 134 132 128 127 125 118 116 110 104 95 91 90 89 88
140 315 98 97 28 19 15 330 313 113 82 187 127 237 20 112 134 156 149 154 153 145 145 147 156 166 158 152 142 147 143 135 132 133 131 126 117 111 102 100 98 93 92 89
41 297 76 156 174 139 171 218 221 130 105 163 203 170 212 157 158 156 157 155 158 158 162 162 168 167 158 152 157 151 146 145 144 143 140 129 120 114 113 106 98 96 91 90
91 19 247 292 34 172 193 218 226 148 164 171 209 227 192 194 184 175 163 160 160 168 178 181 177 164 153 160 161 161 155 154 154 150 143 126 123 118 112 104 105 99 94 94
5 46 75 351 345 1 334 183 205 217 257 289 269 285 235 161 116 149 173 174 176 182 187 182 173 158 161 169 172 169 163 162 162 157 142 136 136 128 116 104 96 97 106 112
285 120 90 247 331 20 350 229 190 207 205 215 210 227 171 140 170 172 181 186 185 186 186 176 172 169 171 177 179 174 168 167 166 159 151 147 142 141 127 122 124 120 123 126
231 133 73 209 16 323 238 189 189 201 182 212 243 264 214 219 162 162 186 179 183 183 177 178 168 170 180 184 180 173 174 171 167 162 160 157 163 159 148 155 158 149 160 163
301 136 126 148 202 287 325 235 153 165 261 209 222 220 195 118 83 206 184 184 183 183 176 173 171 170 182 183 180 176 172 171 173 171 170 170 175 176 176 190 208 229 224 231
243 124 254 102 127 191 244 223 2 99 297 356 268 227 159 132 164 237 180 179 173 173 169 159 165 175 181 184 181 174 170 178 181 181 179 180 188 196 200 217 238 242 258 259
177 147 188 193 199 288 244 196 157 93 233 137 40 34 165 194 210 217 144 155 164 159 156 163 173 175 180 180 182 177 179 187 188 187 186 191 199 204 221 229 238 248 260 267
187 152 191 86 93 280 151 90 169 198 106 137 70 273 229 264 127 139 135 139 141 138 148 162 159 167 180 181 184 182 187 189 189 189 194 205 209 209 224 238 249 260 265 265
215 192 191 181 208 253 213 354 175 143 147 192 229 296 262 171 165 150 136 131 139 144 150 161 157 163 175 181 191 189 191 188 191 197 205 210 214 224 241 258 260 260 267 277
242 182 214 50 248 233 237 232 184 190 196 184 203 220 196 186 150 124 120 127 130 141 146 162 162 164 173 188 194 201 193 194 199 205 210 218 224 235 247 256 266 272 270 268
206 129 187 269 278 284 261 236 218 209 189 174 172 218 198 154 146 137 131 130 141 153 167 171 173 179 183 186 193 198 198 200 204 209 214 223 233 241 249 260 268 271 273 274
192 189 174 218 225 171 272 43 326 194 198 202 183 179 134 167 151 137 142 163 166 169 174 177 183 186 187 191 195 198 201 206 210 214 220 228 238 248 255 262 264 258 265 276